User: anonymous   Login
Location: IoMAS Observatory
(54.1780°N, 4.6265°W)
Time: 15:54:23
(UTC+01:00)
Language:

ISS - Orbit

View from above orbital plane
View from above orbital plane
View from above satellite
View from above satellite

Ground track
Ground track

The orbit data is extracted from the following two-line orbital elements,

1 25544U 98067A   19321.62578469  .00016717  00000-0  10270-3 0  9055
2 25544  51.6403 320.5390 0006603 292.6354  67.4093 15.49981446 39056
Epoch (UTC): 17 November 2019 15:01:07
Eccentricity: 0.0006603
inclination: 51.6403°
perigee height: 412 km
apogee height: 421 km
right ascension of ascending node: 320.5390°
argument of perigee: 292.6354°
revolutions per day: 15.49981446
mean anomaly at epoch: 67.4093°
orbit number at epoch: 3905

The dashed part of the orbit path shows where the satellite is in the earth's shadow,  

DLR